[[{"header":{"parameterUnit":"m.s-1","parameterCategory":1,"la1":30.2991,"la2":30.254,"lo1":-89.0895,"lo2":-89.0444,"dy":0.0017,"dx":0.0017,"nx":28,"ny":28,"refTime":"2024-07-18T03:00:00:Z","depth":0,"parameterNumber":2,"parameterNumberName":"U-component_of_WINDS"},"data":[0,0,0,0,0,0,0,0,0,0,0,0,0,0,0,0,0,0,0,0,0,0,0,0,0,0,0,0,0,0,0,0,0,0,0,0,0,0,0,0,0,0,0,0,0,0,0,0,0,0,0,0,0,0,0,0,0,0,-0.2414,-0.2411,0,-0.2202,-0.22,-0.2197,-0.2118,-0.2118,-0.2119,-0.212,-0.1891,-0.1884,-0.1878,0,0,0,0,0,0,0,0,0,0,0,0,0,-0.2738,-0.2732,-0.2414,-0.2411,-0.2409,-0.2202,-0.2199,-0.2196,-0.2118,-0.2118,-0.2119,-0.212,-0.1893,-0.1885,-0.1877,0,0,0,0,0,0,0,0,0,0,0,0,0,-0.2568,-0.273,-0.2414,-0.2345,-0.2336,-0.2203,-0.2199,-0.2196,-0.2117,-0.2118,-0.2119,-0.212,-0.1896,-0.1886,-0.1876,-0.1792,0,0,-0.1845,-0.184,0,0,0,0,0,0,0,0,-0.2578,-0.2556,-0.2357,-0.2349,-0.234,-0.2188,-0.2229,-0.206,-0.2117,-0.22,-0.212,-0.2121,-0.1988,-0.197,-0.1928,-0.1782,-0.1772,-0.1844,-0.1838,-0.1833,-0.1831,0,0,0,0,0,0,0,-0.259,-0.2565,-0.233,-0.2355,-0.2344,-0.232,-0.2297,-0.2197,-0.209,-0.2193,-0.2187,-0.2163,-0.1983,-0.1938,-0.1922,-0.1769,-0.1844,-0.1835,-0.1829,-0.1825,-0.154,-0.1539,0,0,0,0,0,0,-0.2615,-0.2575,-0.2336,-0.2323,-0.2464,-0.2313,-0.2288,-0.2235,-0.2091,-0.2071,-0.2163,-0.216,-0.1955,-0.1934,-0.1913,-0.1804,-0.1834,-0.1824,-0.1818,-0.1542,-0.154,-0.1538,0,0,0,0,0,0,-0.2622,-0.2594,-0.2345,-0.2448,-0.2414,-0.2307,-0.2248,-0.223,-0.2185,-0.2069,-0.2048,-0.2137,-0.1955,-0.1928,-0.1823,-0.1795,-0.182,-0.181,-0.1543,-0.1541,-0.1539,-0.1587,0,0,0,0,0,0,-0.2632,-0.2598,-0.2568,-0.2448,-0.2409,-0.2262,-0.2247,-0.2225,-0.2169,-0.2164,-0.2039,-0.2019,-0.1953,-0.1839,-0.1813,-0.1782,-0.1802,-0.1545,-0.1542,-0.154,-0.1588,-0.1587,-0.1586,0,0,0,0,0,-0.2644,-0.2588,-0.2567,-0.2538,-0.237,-0.2261,-0.2238,-0.2167,-0.2168,-0.2134,-0.2059,-0.2023,-0.1803,-0.1829,-0.1799,-0.1765,-0.1547,-0.1543,-0.154,-0.1588,-0.1587,-0.1586,0,0,0,0,0,0,-0.2703,-0.2571,-0.2546,-0.245,-0.2368,-0.2248,-0.2204,-0.2169,-0.2082,-0.208,-0.1992,-0.1965,-0.1867,-0.1805,-0.1836,-0.1675,-0.1672,-0.1663,-0.1719,-0.1717,-0.1716,-0.1732,-0.1794,0,0,0,0,0,-0.2706,-0.2633,-0.2519,-0.2445,-0.2406,-0.2313,-0.2262,-0.2215,-0.2124,-0.2088,-0.2005,-0.1915,-0.1825,-0.1768,-0.1679,-0.1579,-0.1548,-0.154,-0.154,-0.154,-0.1532,-0.1471,-0.1465,-0.1527,-0.1527,-0.1527,0,0,-0.2709,-0.2628,-0.2586,-0.2455,-0.2386,-0.2307,-0.2283,-0.2202,-0.2141,-0.2074,-0.1971,-0.1907,-0.18,-0.1698,-0.1648,-0.1643,-0.1508,-0.1535,-0.1536,-0.1528,-0.1467,-0.1461,-0.1456,-0.1525,-0.1525,-0.1525,0,0,-0.2675,-0.2608,-0.2539,-0.247,-0.2367,-0.2305,-0.2289,-0.2173,-0.2129,-0.2026,-0.1973,-0.1898,-0.1746,-0.1672,-0.1614,-0.1552,-0.1513,-0.1525,-0.1521,-0.1463,-0.1458,-0.1453,-0.1428,-0.142,-0.1518,-0.1518,-0.1518,0,-0.2692,-0.2576,-0.2506,-0.2427,-0.237,-0.2309,-0.2236,-0.2171,-0.2042,-0.2002,-0.2,-0.1808,-0.1732,-0.1609,-0.1594,-0.155,-0.1525,-0.1538,-0.1465,-0.1459,-0.1454,-0.1428,-0.142,-0.152,-0.152,-0.152,-0.1519,0,-0.2599,-0.2519,-0.2474,-0.2356,-0.2293,-0.2217,-0.2132,-0.2077,-0.2035,-0.1972,-0.1865,-0.1772,-0.1663,-0.163,-0.1587,-0.1501,-0.1501,-0.1483,-0.1478,-0.1451,-0.1426,-0.1416,-0.1523,-0.1522,-0.1522,-0.1521,0,0,-0.2596,-0.2441,-0.2425,-0.237,-0.2251,-0.2185,-0.2105,-0.2002,-0.1954,-0.1867,-0.1795,-0.1668,-0.1651,-0.1586,-0.1533,-0.1483,-0.1436,-0.147,-0.1466,-0.1465,-0.1331,-0.1343,-0.1334,-0.1411,-0.1409,-0.1407,-0.1339,0,-0.2544,-0.2403,-0.2338,-0.2223,-0.2146,-0.2087,-0.2017,-0.1934,-0.1873,-0.1795,-0.1726,-0.1637,-0.1623,-0.1582,-0.153,-0.1453,-0.1407,-0.1457,-0.1338,-0.1335,-0.1365,-0.1321,-0.1334,-0.1274,-0.1329,-0.1327,-0.1326,0,-0.2465,-0.2382,-0.2261,-0.2151,-0.2116,-0.2054,-0.1953,-0.1881,-0.1785,-0.1743,-0.1671,-0.1621,-0.153,-0.1533,-0.1404,-0.144,-0.1387,-0.1342,-0.1337,-0.1321,-0.1327,-0.13,-0.1253,-0.1243,-0.131,-0.1311,-0.1312,0,-0.2472,-0.2329,-0.2238,-0.2193,-0.2062,-0.2019,-0.1962,-0.1867,-0.1809,-0.1719,-0.1679,-0.1579,-0.1523,-0.1445,-0.1367,-0.1378,-0.1244,-0.1242,-0.1203,-0.1205,-0.1176,-0.1178,-0.1117,-0.1147,-0.1147,-0.1147,-0.1148,0,-0.242,-0.2347,-0.2239,-0.2183,-0.2099,-0.2023,-0.194,-0.1878,-0.1794,-0.1721,-0.1663,-0.1594,-0.1498,-0.1416,-0.1355,-0.1255,-0.1231,-0.1192,-0.1175,-0.1195,-0.12,-0.1157,-0.1158,-0.1145,-0.1145,-0.1146,-0.1146,0,-0.2412,-0.2338,-0.2234,-0.2119,-0.2089,-0.2031,-0.1931,-0.1871,-0.1809,-0.1717,-0.1691,-0.159,-0.149,-0.1407,-0.1275,-0.1233,-0.1129,-0.1111,-0.1163,-0.1154,-0.1119,-0.1123,-0.1026,-0.1007,-0.1054,-0.1053,-0.1053,0,-0.2383,-0.2326,-0.2207,-0.2156,-0.2101,-0.2019,-0.196,-0.1882,-0.1821,-0.1707,-0.166,-0.1558,-0.1472,-0.1315,-0.1227,-0.1125,-0.1103,-0.1076,-0.1087,-0.1108,-0.1098,-0.1102,-0.1094,-0.1074,-0.1074,-0.1074,-0.1074,0,-0.2338,-0.2304,-0.2223,-0.2129,-0.2061,-0.1981,-0.19,-0.1861,-0.1767,-0.1701,-0.1601,-0.1535,-0.1402,-0.1299,-0.1188,-0.1124,-0.1081,-0.1072,-0.1057,-0.1075,-0.1106,-0.1086,-0.1158,-0.1074,-0.1074,-0.1074,-0.1074,-0.1074,-0.2316,-0.2262,-0.217,-0.2081,-0.2012,-0.1938,-0.1876,-0.1806,-0.1723,-0.1611,-0.1569,-0.1466,-0.1367,-0.1215,-0.115,-0.1065,-0.1059,-0.1039,-0.1032,-0.1028,-0.1029,-0.1123,-0.1045,-0.1045,-0.1045,-0.1045,-0.1045,0,-0.2266,-0.2204,-0.2123,-0.2013,-0.1942,-0.1914,-0.1822,-0.1763,-0.1674,-0.1588,-0.1505,-0.1389,-0.1289,-0.1194,-0.1088,-0.1038,-0.1015,-0.1012,-0.1013,-0.0998,-0.1043,-0.1065,-0.1032,-0.1032,-0.1032,-0.1032,-0.1032,-0.1032,-0.2231,-0.2138,-0.2093,-0.1963,-0.19,-0.1802,-0.1751,-0.168,-0.1611,-0.1485,-0.1404,-0.1344,-0.1252,-0.1139,-0.1045,-0.1019,-0.0981,-0.0982,-0.0951,-0.0993,-0.0996,-0.0998,-0.1018,-0.0976,-0.0976,-0.0913,-0.0912,-0.0912]},{"header":{"parameterUnit":"m.s-1","parameterCategory":1,"la1":30.2991,"la2":30.254,"lo1":-89.0895,"lo2":-89.0444,"dy":0.0017,"dx":0.0017,"nx":28,"ny":28,"refTime":"2024-07-18T03:00:00:Z","depth":0,"parameterNumber":3,"parameterNumberName":"V-component_of_WINDS"},"data":[0,0,0,0,0,0,0,0,0,0,0,0,0,0,0,0,0,0,0,0,0,0,0,0,0,0,0,0,0,0,0,0,0,0,0,0,0,0,0,0,0,0,0,0,0,0,0,0,0,0,0,0,0,0,0,0,0,0,3.4029,3.4026,0,3.3742,3.3739,3.3736,3.3546,3.3545,3.3543,3.3542,3.3248,3.3242,3.3235,0,0,0,0,0,0,0,0,0,0,0,0,0,3.4414,3.4408,3.4029,3.4026,3.4022,3.3743,3.3739,3.3735,3.3546,3.3545,3.3543,3.3542,3.325,3.3243,3.3235,0,0,0,0,0,0,0,0,0,0,0,0,0,3.42,3.4406,3.403,3.3894,3.3879,3.3744,3.3739,3.3734,3.3546,3.3545,3.3543,3.3541,3.3253,3.3243,3.3233,3.321,0,0,3.3203,3.3199,0,0,0,0,0,0,0,0,3.4212,3.4186,3.3918,3.3903,3.3886,3.3678,3.3767,3.3558,3.3547,3.3673,3.3542,3.354,3.3393,3.3371,3.3321,3.3196,3.3184,3.3202,3.3196,3.3192,3.3189,0,0,0,0,0,0,0,3.4227,3.4197,3.3916,3.3914,3.3895,3.3848,3.3815,3.3726,3.3547,3.3662,3.3647,3.3616,3.3384,3.3332,3.3313,3.3179,3.3202,3.3194,3.3187,3.3184,3.3022,3.3024,0,0,0,0,0,0,3.4263,3.4211,3.3925,3.3907,3.4048,3.3843,3.3806,3.3747,3.3547,3.3515,3.3618,3.3608,3.335,3.3325,3.3302,3.3261,3.3192,3.3183,3.3177,3.302,3.3022,3.3024,0,0,0,0,0,0,3.4272,3.424,3.3936,3.4055,3.4013,3.3838,3.3773,3.3742,3.3689,3.3514,3.3481,3.3597,3.3347,3.3316,3.3235,3.3248,3.3178,3.3169,3.3018,3.3021,3.3023,3.318,0,0,0,0,0,0,3.4284,3.4244,3.4233,3.4056,3.4007,3.3874,3.3774,3.3738,3.3673,3.3658,3.3486,3.3456,3.3343,3.3251,3.3225,3.3233,3.3161,3.3016,3.302,3.3023,3.3173,3.3188,3.3201,0,0,0,0,0,3.4299,3.4288,3.4233,3.42,3.3989,3.3875,3.3846,3.3717,3.3675,3.3662,3.355,3.3461,3.3252,3.3244,3.3213,3.3219,3.3015,3.3019,3.3022,3.3167,3.3185,3.32,0,0,0,0,0,0,3.4469,3.4262,3.4199,3.4131,3.4022,3.3843,3.3822,3.374,3.3641,3.363,3.3474,3.3437,3.3372,3.3287,3.3282,3.3187,3.3123,3.3121,3.3243,3.3259,3.3273,3.3293,3.3153,0,0,0,0,0,3.45,3.4424,3.4247,3.4204,3.4152,3.3998,3.3943,3.3853,3.3734,3.3687,3.3568,3.3456,3.3365,3.3308,3.3214,3.3162,3.3121,3.3151,3.3165,3.3177,3.3176,3.3142,3.3153,3.3037,3.3037,3.3037,0,0,3.456,3.4437,3.4398,3.4235,3.414,3.4065,3.396,3.3885,3.3828,3.3675,3.359,3.3501,3.3365,3.3299,3.3263,3.3226,3.32,3.3182,3.3193,3.3185,3.3148,3.3159,3.3169,3.3039,3.3039,3.3038,0,0,3.4631,3.4531,3.4484,3.4392,3.4251,3.4148,3.4138,3.3972,3.3906,3.382,3.3704,3.3635,3.3481,3.3389,3.3323,3.3365,3.328,3.334,3.341,3.338,3.3389,3.3396,3.341,3.3417,3.334,3.334,3.334,0,3.4723,3.4605,3.447,3.4402,3.4334,3.4195,3.4147,3.4064,3.3899,3.3856,3.3818,3.3623,3.3522,3.3432,3.3443,3.3394,3.3377,3.3356,3.3398,3.3404,3.3409,3.3421,3.3427,3.3348,3.3347,3.3347,3.3346,0,3.4726,3.4647,3.4626,3.4472,3.4402,3.4345,3.4201,3.4147,3.4065,3.3968,3.3882,3.3757,3.3636,3.3609,3.3528,3.3508,3.349,3.3428,3.336,3.3431,3.3439,3.3443,3.336,3.3357,3.3354,3.3352,0,0,3.4891,3.4666,3.4661,3.459,3.4425,3.4361,3.43,3.4182,3.4138,3.4031,3.3975,3.385,3.3792,3.3717,3.3625,3.3599,3.364,3.3539,3.3533,3.3561,3.3611,3.3658,3.3665,3.3584,3.3585,3.3585,3.3622,0,3.4936,3.4816,3.4695,3.4617,3.4543,3.4412,3.4358,3.4252,3.4161,3.4085,3.3984,3.3898,3.3828,3.3782,3.3751,3.3642,3.3648,3.3638,3.353,3.3527,3.3565,3.3669,3.3717,3.3758,3.3625,3.3625,3.3625,0,3.497,3.487,3.4787,3.4632,3.4596,3.4549,3.4433,3.4363,3.4241,3.4177,3.4096,3.3999,3.3928,3.3872,3.3772,3.3768,3.3717,3.3658,3.3657,3.3639,3.3579,3.3653,3.3768,3.3774,3.363,3.3629,3.3629,0,3.5098,3.4943,3.4872,3.4816,3.4634,3.4605,3.4528,3.4404,3.4342,3.4242,3.42,3.4093,3.4034,3.3954,3.3831,3.3802,3.3745,3.3678,3.3689,3.3692,3.368,3.3682,3.3786,3.3652,3.3652,3.3652,3.3652,0,3.5158,3.5112,3.4928,3.4884,3.4829,3.4692,3.4641,3.4553,3.4445,3.4383,3.4264,3.4208,3.4051,3.3977,3.3881,3.3813,3.3788,3.3734,3.3708,3.3743,3.375,3.3705,3.3698,3.3653,3.3653,3.3653,3.3653,0,3.5289,3.5164,3.5079,3.4915,3.4873,3.484,3.47,3.4653,3.4558,3.4481,3.4455,3.4304,3.4211,3.4082,3.3949,3.3885,3.383,3.3791,3.3871,3.3855,3.3873,3.3873,3.3951,3.3954,3.3821,3.3823,3.3824,0,3.5334,3.5296,3.5129,3.508,3.5007,3.4928,3.4865,3.4731,3.467,3.4531,3.4502,3.44,3.4311,3.417,3.4048,3.3947,3.3903,3.3938,3.3887,3.3923,3.3902,3.3905,3.39,3.3949,3.3951,3.3953,3.3954,0,3.5428,3.5369,3.5283,3.5177,3.5106,3.5015,3.4919,3.4885,3.473,3.4669,3.4573,3.4505,3.4371,3.4271,3.4155,3.4075,3.3989,3.3972,3.3969,3.4002,3.405,3.4023,3.3902,3.397,3.3968,3.3967,3.3966,3.3966,3.5515,3.5476,3.5353,3.5262,3.5177,3.5091,3.504,3.4939,3.4857,3.4737,3.4664,3.4572,3.4454,3.4288,3.4214,3.414,3.4105,3.4101,3.4099,3.41,3.4112,3.4065,3.4119,3.4118,3.4118,3.4117,3.4117,0,3.5601,3.5518,3.5436,3.5306,3.5236,3.5164,3.5055,3.5,3.4921,3.4818,3.4735,3.4626,3.453,3.4404,3.4299,3.4265,3.4223,3.4242,3.4242,3.4225,3.4149,3.4162,3.4278,3.4278,3.4278,3.4278,3.4278,3.4278,3.5638,3.5567,3.5495,3.5382,3.5297,3.5207,3.5151,3.5072,3.4989,3.4874,3.4794,3.4713,3.4601,3.4489,3.4398,3.4364,3.433,3.4361,3.4315,3.4245,3.423,3.4216,3.4227,3.4355,3.4356,3.4396,3.4396,3.4397]}]]